Location: *
(46.1833°N, 22.7667°E)
Time: 08:25:50
(UTC+00:00)

CZ-4C R/B - Pass Details

Date: 17 September 2019
Orbit: 654 x 1348 km, 63.4° (Epoch: 14 October)

Event Time Altitude Azimuth Distance (km) Brightness Sun altitude
Rises 21:52:23 0° 321° (NW) 3,735 6.2 -41.2°
Reaches altitude 10° 21:54:56 10° 327° (NNW) 2,882 5.5 -41.3°
Enters shadow 21:59:36 40° 359° (N) 1,643 3.9 -41.4°
